Time,TemperatureF,DewpointF,PressureIn,WindDirection,WindDirectionDegrees,WindSpeedMPH,WindSpeedGustMPH,Humidity,HourlyPrecipIn,Conditions,Clouds,dailyrainin,SolarRadiationWatts/m^2,SoftwareType,DateUTC
2013-06-18 00:01:00,67.0,67.0,29.15,NNW,337,0.0,0.0,100,0.00,,---,0.00,0.00,VWS V14.01,2013-06-18 04:01:00,
2013-06-18 00:02:00,67.0,67.0,29.15,NNW,337,0.0,0.0,100,0.00,,---,0.00,0.00,VWS V14.01,2013-06-18 04:02:00,
2013-06-18 00:07:00,67.0,67.0,29.15,NNW,337,0.0,0.0,100,0.00,,---,0.00,0.00,VWS V14.01,2013-06-18 04:07:00,
2013-06-18 00:13:00,67.0,67.0,29.15,NNW,337,0.0,0.0,100,0.00,,---,0.00,0.00,VWS V14.01,2013-06-18 04:13:00,
2013-06-18 00:18:00,67.0,67.0,29.13,NNW,337,0.0,0.0,100,0.00,,---,0.00,0.00,VWS V14.01,2013-06-18 04:18:00,
2013-06-18 00:23:00,67.0,67.0,29.13,South,180,0.0,0.0,100,0.00,,---,0.00,0.00,VWS V14.01,2013-06-18 04:23:00,
2013-06-18 00:28:00,67.0,67.0,29.15,SE,135,0.0,0.0,100,0.00,,---,0.00,0.00,VWS V14.01,2013-06-18 04:28:00,
2013-06-18 00:33:00,69.0,69.0,29.15,South,180,0.0,3.0,100,0.00,,---,0.00,0.00,VWS V14.01,2013-06-18 04:33:00,
2013-06-18 00:38:00,70.0,70.0,29.14,ESE,112,0.0,1.0,100,0.00,,---,0.00,0.00,VWS V14.01,2013-06-18 04:38:00,
2013-06-18 00:43:00,70.0,70.0,29.14,SE,135,0.0,5.0,100,0.00,,---,0.00,0.00,VWS V14.01,2013-06-18 04:43:00,
2013-06-18 00:48:00,70.0,70.0,29.14,South,180,0.0,3.0,100,0.00,,---,0.00,0.00,VWS V14.01,2013-06-18 04:48:00,
2013-06-18 00:53:00,70.0,70.0,29.14,SSW,202,0.0,3.0,100,0.00,,---,0.00,0.00,VWS V14.01,2013-06-18 04:53:00,
2013-06-18 00:58:00,71.0,71.0,29.14,SE,135,0.0,0.0,100,0.00,,---,0.00,0.00,VWS V14.01,2013-06-18 04:58:00,
2013-06-18 01:03:00,70.0,70.0,29.14,SSW,202,3.0,5.0,100,0.00,,---,0.00,0.00,VWS V14.01,2013-06-18 05:03:00,
2013-06-18 01:08:00,70.0,70.0,29.13,South,180,3.0,3.0,100,0.00,,---,0.00,0.00,VWS V14.01,2013-06-18 05:08:00,
2013-06-18 01:13:00,70.0,70.0,29.13,SSW,202,0.0,0.0,100,0.00,,---,0.00,0.00,VWS V14.01,2013-06-18 05:13:00,
2013-06-18 01:18:00,70.0,70.0,29.14,SSW,202,0.0,6.0,100,0.00,,---,0.00,0.00,VWS V14.01,2013-06-18 05:18:00,
2013-06-18 01:23:00,70.0,70.0,29.14,SSW,202,0.0,6.0,100,0.00,,---,0.00,0.00,VWS V14.01,2013-06-18 05:23:00,
2013-06-18 01:28:00,70.0,70.0,29.14,ENE,67,0.0,3.0,100,0.00,,---,0.00,0.00,VWS V14.01,2013-06-18 05:28:00,
2013-06-18 01:33:00,70.0,69.7,29.14,SW,225,4.0,6.0,99,0.00,,---,0.00,0.00,VWS V14.01,2013-06-18 05:33:00,
2013-06-18 01:38:00,70.0,69.7,29.14,SSW,202,1.0,3.0,99,0.00,,---,0.00,0.00,VWS V14.01,2013-06-18 05:38:00,
2013-06-18 01:43:00,69.0,68.4,29.14,South,180,0.0,3.0,98,0.00,,---,0.00,0.00,VWS V14.01,2013-06-18 05:43:00,
2013-06-18 01:48:00,69.0,68.4,29.14,West,270,0.0,3.0,98,0.00,,---,0.00,0.00,VWS V14.01,2013-06-18 05:48:00,
2013-06-18 01:53:00,69.0,68.4,29.14,WSW,247,0.0,2.0,98,0.00,,---,0.00,0.00,VWS V14.01,2013-06-18 05:53:00,
2013-06-18 01:58:00,69.0,68.7,29.13,WNW,292,0.0,0.0,99,0.00,,---,0.00,0.00,VWS V14.01,2013-06-18 05:58:00,
2013-06-18 02:03:00,68.0,67.7,29.13,SSE,157,0.0,1.0,99,0.00,,---,0.00,0.00,VWS V14.01,2013-06-18 06:03:00,
2013-06-18 02:08:00,68.0,67.7,29.13,SW,225,0.0,3.0,99,0.00,,---,0.00,0.00,VWS V14.01,2013-06-18 06:08:00,
2013-06-18 02:13:00,68.0,68.0,29.13,SSW,202,0.0,0.0,100,0.00,,---,0.00,0.00,VWS V14.01,2013-06-18 06:13:00,
2013-06-18 02:18:00,68.0,67.7,29.14,ESE,112,0.0,0.0,99,0.00,,---,0.00,0.00,VWS V14.01,2013-06-18 06:18:00,
2013-06-18 02:23:00,68.0,68.0,29.14,SW,225,0.0,3.0,100,0.00,,---,0.00,0.00,VWS V14.01,2013-06-18 06:23:00,
2013-06-18 02:28:00,68.0,68.0,29.13,ENE,67,0.0,1.0,100,0.00,,---,0.00,0.00,VWS V14.01,2013-06-18 06:28:00,
2013-06-18 02:33:00,68.0,67.7,29.13,SW,225,0.0,4.0,99,0.00,,---,0.00,0.00,VWS V14.01,2013-06-18 06:33:00,
2013-06-18 02:38:00,68.0,67.7,29.13,South,180,0.0,0.0,99,0.00,,---,0.00,0.00,VWS V14.01,2013-06-18 06:38:00,
2013-06-18 02:43:00,67.0,67.0,29.13,SW,225,0.0,3.0,100,0.00,,---,0.00,0.00,VWS V14.01,2013-06-18 06:43:00,
2013-06-18 02:48:00,67.0,67.0,29.13,North,360,0.0,1.0,100,0.00,,---,0.00,0.00,VWS V14.01,2013-06-18 06:48:00,
2013-06-18 02:53:00,67.0,67.0,29.13,SW,225,0.0,0.0,100,0.00,,---,0.00,0.00,VWS V14.01,2013-06-18 06:53:00,
2013-06-18 02:58:00,67.0,67.0,29.13,SSW,202,0.0,0.0,100,0.00,,---,0.00,0.00,VWS V14.01,2013-06-18 06:58:00,
2013-06-18 03:03:00,67.0,67.0,29.13,SSE,157,0.0,1.0,100,0.00,,---,0.00,0.00,VWS V14.01,2013-06-18 07:03:00,
2013-06-18 03:08:00,67.0,67.0,29.13,SW,225,0.0,0.0,100,0.00,,---,0.00,0.00,VWS V14.01,2013-06-18 07:08:00,
2013-06-18 03:13:00,67.0,67.0,29.13,SW,225,0.0,0.0,100,0.00,,---,0.00,0.00,VWS V14.01,2013-06-18 07:13:00,
2013-06-18 03:18:00,67.0,67.0,29.13,West,270,0.0,2.0,100,0.00,,---,0.00,0.00,VWS V14.01,2013-06-18 07:18:00,
2013-06-18 03:23:00,67.0,67.0,29.13,North,360,0.0,0.0,100,0.00,,---,0.00,0.00,VWS V14.01,2013-06-18 07:23:00,
2013-06-18 03:28:00,67.0,67.0,29.13,WNW,292,0.0,0.0,100,0.00,,---,0.00,0.00,VWS V14.01,2013-06-18 07:28:00,
2013-06-18 03:33:00,67.0,67.0,29.13,SE,135,0.0,0.0,100,0.00,,---,0.00,0.00,VWS V14.01,2013-06-18 07:33:00,
2013-06-18 03:38:00,66.0,66.0,29.13,West,270,2.0,2.0,100,0.00,,---,0.00,0.00,VWS V14.01,2013-06-18 07:38:00,
2013-06-18 03:43:00,67.0,67.0,29.13,West,270,0.0,1.0,100,0.00,,---,0.00,0.00,VWS V14.01,2013-06-18 07:43:00,
2013-06-18 03:48:00,66.0,66.0,29.13,SSW,202,0.0,0.0,100,0.00,,---,0.00,0.00,VWS V14.01,2013-06-18 07:48:00,
2013-06-18 03:53:00,66.0,66.0,29.14,South,180,0.0,0.0,100,0.00,,---,0.00,0.00,VWS V14.01,2013-06-18 07:53:00,
2013-06-18 03:58:00,66.0,66.0,29.14,NE,45,0.0,0.0,100,0.00,,---,0.00,0.00,VWS V14.01,2013-06-18 07:58:00,
2013-06-18 04:03:00,66.0,66.0,29.14,South,180,0.0,0.0,100,0.00,,---,0.00,0.00,VWS V14.01,2013-06-18 08:03:00,
2013-06-18 04:09:00,66.0,66.0,29.14,South,180,0.0,0.0,100,0.00,,---,0.00,0.00,VWS V14.01,2013-06-18 08:09:00,
2013-06-18 04:14:00,66.0,66.0,29.14,South,180,0.0,0.0,100,0.00,,---,0.00,0.00,VWS V14.01,2013-06-18 08:14:00,
2013-06-18 04:19:00,66.0,66.0,29.14,South,180,0.0,0.0,100,0.00,,---,0.00,0.00,VWS V14.01,2013-06-18 08:19:00,
2013-06-18 04:24:00,66.0,66.0,29.14,South,180,0.0,0.0,100,0.00,,---,0.00,0.00,VWS V14.01,2013-06-18 08:24:00,
2013-06-18 04:29:00,65.0,65.0,29.14,South,180,0.0,0.0,100,0.00,,---,0.00,0.00,VWS V14.01,2013-06-18 08:29:00,
2013-06-18 04:34:00,65.0,65.0,29.15,SSW,202,0.0,0.0,100,0.00,,---,0.00,0.00,VWS V14.01,2013-06-18 08:34:00,
2013-06-18 04:39:00,65.0,65.0,29.15,East,90,0.0,0.0,100,0.00,,---,0.00,0.00,VWS V14.01,2013-06-18 08:39:00,
2013-06-18 04:44:00,65.0,65.0,29.12,East,90,0.0,0.0,100,0.00,,---,0.00,0.00,VWS V14.01,2013-06-18 08:44:00,
2013-06-18 04:49:00,65.0,65.0,29.12,East,90,0.0,0.0,100,0.00,,---,0.00,0.00,VWS V14.01,2013-06-18 08:49:00,
2013-06-18 04:54:00,65.0,65.0,29.15,East,90,0.0,0.0,100,0.00,,---,0.00,0.00,VWS V14.01,2013-06-18 08:54:00,
2013-06-18 04:59:00,64.0,64.0,29.15,East,90,0.0,0.0,100,0.00,,---,0.00,0.00,VWS V14.01,2013-06-18 08:59:00,
2013-06-18 05:04:00,64.0,64.0,29.14,East,90,0.0,0.0,100,0.00,,---,0.00,0.00,VWS V14.01,2013-06-18 09:04:00,
2013-06-18 05:09:00,64.0,64.0,29.14,East,90,0.0,0.0,100,0.00,,---,0.00,0.00,VWS V14.01,2013-06-18 09:09:00,
2013-06-18 05:14:00,64.0,64.0,29.14,East,90,0.0,0.0,100,0.00,,---,0.00,0.00,VWS V14.01,2013-06-18 09:14:00,
2013-06-18 05:19:00,63.0,63.0,29.14,East,90,0.0,0.0,100,0.00,,---,0.00,0.00,VWS V14.01,2013-06-18 09:19:00,
2013-06-18 05:24:00,63.0,63.0,29.15,East,90,0.0,0.0,100,0.00,,---,0.00,0.00,VWS V14.01,2013-06-18 09:24:00,
2013-06-18 05:29:00,63.0,63.0,29.15,East,90,0.0,0.0,100,0.00,,---,0.00,0.00,VWS V14.01,2013-06-18 09:29:00,
2013-06-18 05:34:00,63.0,63.0,29.14,East,90,0.0,0.0,100,0.00,,---,0.00,0.00,VWS V14.01,2013-06-18 09:34:00,
2013-06-18 05:39:00,62.0,62.0,29.14,East,90,0.0,0.0,100,0.00,,---,0.00,0.00,VWS V14.01,2013-06-18 09:39:00,
2013-06-18 05:44:00,62.0,62.0,29.15,East,90,0.0,0.0,100,0.00,,---,0.00,0.00,VWS V14.01,2013-06-18 09:44:00,
2013-06-18 05:49:00,62.0,62.0,29.15,East,90,0.0,0.0,100,0.00,,---,0.00,0.00,VWS V14.01,2013-06-18 09:49:00,
2013-06-18 05:54:00,62.0,62.0,29.14,East,90,0.0,0.0,100,0.00,,---,0.00,0.00,VWS V14.01,2013-06-18 09:54:00,
2013-06-18 05:59:00,62.0,62.0,29.14,East,90,0.0,0.0,100,0.00,,---,0.00,0.00,VWS V14.01,2013-06-18 09:59:00,
2013-06-18 06:04:00,62.0,62.0,29.13,East,90,0.0,0.0,100,0.00,,---,0.00,0.00,VWS V14.01,2013-06-18 10:04:00,
2013-06-18 06:09:00,61.0,61.0,29.13,East,90,0.0,0.0,100,0.00,,---,0.00,0.00,VWS V14.01,2013-06-18 10:09:00,
2013-06-18 06:14:00,61.0,61.0,29.14,East,90,0.0,0.0,100,0.00,,---,0.00,0.00,VWS V14.01,2013-06-18 10:14:00,
2013-06-18 06:19:00,61.0,61.0,29.14,East,90,0.0,0.0,100,0.00,,---,0.00,0.00,VWS V14.01,2013-06-18 10:19:00,
2013-06-18 06:24:00,61.0,61.0,29.15,East,90,0.0,0.0,100,0.00,,---,0.00,0.00,VWS V14.01,2013-06-18 10:24:00,
2013-06-18 06:29:00,61.0,61.0,29.15,East,90,0.0,0.0,100,0.00,,---,0.00,0.00,VWS V14.01,2013-06-18 10:29:00,
2013-06-18 06:34:00,61.0,61.0,29.15,East,90,0.0,0.0,100,0.00,,---,0.00,0.00,VWS V14.01,2013-06-18 10:34:00,
2013-06-18 06:39:00,61.0,61.0,29.15,East,90,0.0,0.0,100,0.00,,---,0.00,0.00,VWS V14.01,2013-06-18 10:39:00,
2013-06-18 06:44:00,61.0,60.4,29.15,East,90,0.0,0.0,98,0.00,,---,0.00,0.00,VWS V14.01,2013-06-18 10:44:00,
2013-06-18 06:49:00,61.0,60.4,29.15,East,90,0.0,0.0,98,0.00,,---,0.00,0.00,VWS V14.01,2013-06-18 10:49:00,
2013-06-18 06:54:00,61.0,60.2,29.16,East,90,0.0,0.0,97,0.00,,---,0.00,0.00,VWS V14.01,2013-06-18 10:54:00,
2013-06-18 06:59:00,61.0,60.7,29.16,East,90,0.0,0.0,99,0.00,,---,0.00,0.00,VWS V14.01,2013-06-18 10:59:00,
2013-06-18 07:04:00,61.0,59.6,29.16,East,90,0.0,0.0,95,0.00,,---,0.00,0.00,VWS V14.01,2013-06-18 11:04:00,
2013-06-18 07:09:00,61.0,60.2,29.16,East,90,0.0,0.0,97,0.00,,---,0.00,0.00,VWS V14.01,2013-06-18 11:09:00,
2013-06-18 07:14:00,62.0,59.7,29.16,SSE,157,2.0,4.0,92,0.00,,---,0.00,0.00,VWS V14.01,2013-06-18 11:14:00,
2013-06-18 07:19:00,62.0,60.8,29.16,SSE,157,0.0,3.0,96,0.00,,---,0.00,0.00,VWS V14.01,2013-06-18 11:19:00,
2013-06-18 07:24:00,63.0,61.5,29.15,SSE,157,0.0,0.0,95,0.00,,---,0.00,0.00,VWS V14.01,2013-06-18 11:24:00,
2013-06-18 07:29:00,63.0,62.1,29.15,SSW,202,0.0,0.0,97,0.00,,---,0.00,0.00,VWS V14.01,2013-06-18 11:29:00,
2013-06-18 07:34:00,64.0,63.1,29.16,SSW,202,0.0,0.0,97,0.00,,---,0.00,0.00,VWS V14.01,2013-06-18 11:34:00,
2013-06-18 07:39:00,65.0,64.7,29.16,SW,225,0.0,0.0,99,0.00,,---,0.00,0.00,VWS V14.01,2013-06-18 11:39:00,
2013-06-18 07:44:00,66.0,65.7,29.17,WSW,247,0.0,0.0,99,0.00,,---,0.00,0.00,VWS V14.01,2013-06-18 11:44:00,
2013-06-18 07:49:00,66.0,66.0,29.17,SSW,202,0.0,0.0,100,0.00,,---,0.00,0.00,VWS V14.01,2013-06-18 11:49:00,
2013-06-18 07:54:00,67.0,67.0,29.17,North,360,0.0,0.0,100,0.00,,---,0.00,0.00,VWS V14.01,2013-06-18 11:54:00,
2013-06-18 07:59:00,67.0,67.0,29.17,SSW,202,0.0,0.0,100,0.00,,---,0.00,0.00,VWS V14.01,2013-06-18 11:59:00,
2013-06-18 08:04:00,67.0,67.0,29.17,South,180,0.0,1.0,100,0.00,,---,0.00,0.00,VWS V14.01,2013-06-18 12:04:00,
2013-06-18 08:09:00,68.0,68.0,29.17,North,360,0.0,3.0,100,0.00,,---,0.00,0.00,VWS V14.01,2013-06-18 12:09:00,
2013-06-18 08:14:00,69.0,69.0,29.16,North,360,0.0,0.0,100,0.00,,---,0.00,0.00,VWS V14.01,2013-06-18 12:14:00,
2013-06-18 08:19:00,69.0,68.4,29.16,NNE,22,0.0,2.0,98,0.00,,---,0.00,0.00,VWS V14.01,2013-06-18 12:19:00,
2013-06-18 08:24:00,70.0,69.1,29.16,NNW,337,0.0,0.0,97,0.00,,---,0.00,0.00,VWS V14.01,2013-06-18 12:24:00,
2013-06-18 08:29:00,71.0,70.1,29.16,ESE,112,0.0,0.0,97,0.00,,---,0.00,0.00,VWS V14.01,2013-06-18 12:29:00,
2013-06-18 08:34:00,71.0,68.9,29.16,North,360,0.0,3.0,93,0.00,,---,0.00,0.00,VWS V14.01,2013-06-18 12:34:00,
2013-06-18 08:39:00,71.0,69.2,29.16,West,270,0.0,2.0,94,0.00,,---,0.00,0.00,VWS V14.01,2013-06-18 12:39:00,
2013-06-18 08:44:00,71.0,68.9,29.15,SSE,157,0.0,0.0,93,0.00,,---,0.00,0.00,VWS V14.01,2013-06-18 12:44:00,
2013-06-18 08:49:00,71.0,69.5,29.15,West,270,0.0,0.0,95,0.00,,---,0.00,0.00,VWS V14.01,2013-06-18 12:49:00,
2013-06-18 08:54:00,72.0,70.2,29.16,SSW,202,2.0,2.0,94,0.00,,---,0.00,0.00,VWS V14.01,2013-06-18 12:54:00,
2013-06-18 08:59:00,71.0,69.2,29.16,SSW,202,0.0,2.0,94,0.00,,---,0.00,0.00,VWS V14.01,2013-06-18 12:59:00,
2013-06-18 09:04:00,71.0,68.9,29.16,ENE,67,0.0,0.0,93,0.00,,---,0.00,0.00,VWS V14.01,2013-06-18 13:04:00,
2013-06-18 09:09:00,71.0,69.5,29.16,SSW,202,0.0,0.0,95,0.00,,---,0.00,0.00,VWS V14.01,2013-06-18 13:09:00,
2013-06-18 09:14:00,71.0,69.5,29.15,South,180,3.0,3.0,95,0.00,,---,0.00,0.00,VWS V14.01,2013-06-18 13:14:00,
2013-06-18 09:19:00,71.0,69.2,29.15,SW,225,0.0,0.0,94,0.00,,---,0.00,0.00,VWS V14.01,2013-06-18 13:19:00,
2013-06-18 09:24:00,72.0,70.5,29.13,NW,315,0.0,0.0,95,0.00,,---,0.00,0.00,VWS V14.01,2013-06-18 13:24:00,
2013-06-18 09:29:00,73.0,70.9,29.13,ENE,67,0.0,0.0,93,0.00,,---,0.00,0.00,VWS V14.01,2013-06-18 13:29:00,
2013-06-18 09:34:00,74.0,70.6,29.11,ENE,67,1.0,1.0,89,0.00,,---,0.00,0.00,VWS V14.01,2013-06-18 13:34:00,
2013-06-18 09:39:00,75.0,70.9,29.11,West,270,0.0,0.0,87,0.00,,---,0.00,0.00,VWS V14.01,2013-06-18 13:39:00,
2013-06-18 09:44:00,76.0,71.9,29.10,WSW,247,0.0,0.0,87,0.00,,---,0.00,0.00,VWS V14.01,2013-06-18 13:44:00,
2013-06-18 09:49:00,75.0,70.2,29.10,East,90,5.0,5.0,85,0.00,,---,0.00,0.00,VWS V14.01,2013-06-18 13:49:00,
2013-06-18 09:54:00,75.0,71.2,29.09,ENE,67,0.0,0.0,88,0.00,,---,0.00,0.00,VWS V14.01,2013-06-18 13:54:00,
2013-06-18 09:59:00,76.0,71.9,29.09,ESE,112,0.0,0.0,87,0.00,,---,0.00,0.00,VWS V14.01,2013-06-18 13:59:00,
2013-06-18 10:04:00,75.0,70.5,29.09,West,270,0.0,3.0,86,0.00,,---,0.00,0.00,VWS V14.01,2013-06-18 14:04:00,
2013-06-18 10:09:00,75.0,70.9,29.09,SSW,202,0.0,0.0,87,0.00,,---,0.00,0.00,VWS V14.01,2013-06-18 14:09:00,
2013-06-18 10:14:00,76.0,71.5,29.09,NW,315,0.0,0.0,86,0.00,,---,0.00,0.00,VWS V14.01,2013-06-18 14:14:00,
2013-06-18 10:19:00,77.0,72.2,29.09,East,90,0.0,3.0,85,0.00,,---,0.00,0.00,VWS V14.01,2013-06-18 14:19:00,
2013-06-18 10:24:00,77.0,72.2,29.09,West,270,0.0,3.0,85,0.00,,---,0.00,0.00,VWS V14.01,2013-06-18 14:24:00,
2013-06-18 10:29:00,78.0,72.8,29.09,NW,315,4.0,4.0,84,0.00,,---,0.00,0.00,VWS V14.01,2013-06-18 14:29:00,
2013-06-18 10:34:00,78.0,71.3,29.09,NNW,337,3.0,3.0,80,0.00,,---,0.00,0.00,VWS V14.01,2013-06-18 14:34:00,
2013-06-18 10:39:00,78.0,72.1,29.09,ESE,112,3.0,3.0,82,0.00,,---,0.00,0.00,VWS V14.01,2013-06-18 14:39:00,
2013-06-18 10:44:00,77.0,71.4,29.08,SE,135,0.0,3.0,83,0.00,,---,0.00,0.00,VWS V14.01,2013-06-18 14:44:00,
2013-06-18 10:49:00,77.0,71.1,29.08,NE,45,0.0,1.0,82,0.00,,---,0.00,0.00,VWS V14.01,2013-06-18 14:49:00,
2013-06-18 10:54:00,77.0,71.4,29.09,East,90,1.0,1.0,83,0.00,,---,0.00,0.00,VWS V14.01,2013-06-18 14:54:00,
2013-06-18 10:59:00,77.0,71.8,29.09,East,90,3.0,3.0,84,0.00,,---,0.00,0.00,VWS V14.01,2013-06-18 14:59:00,
2013-06-18 11:04:00,76.0,70.5,29.09,East,90,0.0,2.0,83,0.00,,---,0.00,0.00,VWS V14.01,2013-06-18 15:04:00,
2013-06-18 11:09:00,77.0,71.8,29.09,ENE,67,0.0,3.0,84,0.00,,---,0.00,0.00,VWS V14.01,2013-06-18 15:09:00,
2013-06-18 11:14:00,78.0,71.7,29.07,NNE,22,0.0,3.0,81,0.00,,---,0.00,0.00,VWS V14.01,2013-06-18 15:14:00,
2013-06-18 11:19:00,79.0,72.7,29.07,East,90,0.0,0.0,81,0.00,,---,0.00,0.00,VWS V14.01,2013-06-18 15:19:00,
2013-06-18 11:24:00,78.0,71.0,29.08,SE,135,0.0,1.0,79,0.00,,---,0.00,0.00,VWS V14.01,2013-06-18 15:24:00,
2013-06-18 11:29:00,77.0,69.6,29.08,ESE,112,0.0,3.0,78,0.00,,---,0.00,0.00,VWS V14.01,2013-06-18 15:29:00,
2013-06-18 11:34:00,78.0,72.1,29.08,NNW,337,0.0,3.0,82,0.00,,---,0.00,0.00,VWS V14.01,2013-06-18 15:34:00,
2013-06-18 11:39:00,79.0,73.8,29.08,East,90,0.0,0.0,84,0.00,,---,0.00,0.00,VWS V14.01,2013-06-18 15:39:00,
2013-06-18 11:44:00,80.0,72.2,29.07,ESE,112,2.0,2.0,77,0.00,,---,0.00,0.00,VWS V14.01,2013-06-18 15:44:00,
2013-06-18 11:49:00,78.0,71.7,29.07,SSE,157,3.0,5.0,81,0.00,,---,0.00,0.00,VWS V14.01,2013-06-18 15:49:00,
2013-06-18 11:54:00,78.0,71.0,29.07,SSE,157,2.0,3.0,79,0.00,,---,0.00,0.00,VWS V14.01,2013-06-18 15:54:00,
2013-06-18 11:59:00,78.0,71.0,29.07,WNW,292,0.0,3.0,79,0.00,,---,0.00,0.00,VWS V14.01,2013-06-18 15:59:00,
2013-06-18 12:04:00,79.0,70.0,29.06,ESE,112,0.0,3.0,74,0.00,,---,0.00,0.00,VWS V14.01,2013-06-18 16:04:00,
2013-06-18 12:09:00,79.0,70.8,29.06,NW,315,2.0,4.0,76,0.00,,---,0.00,0.00,VWS V14.01,2013-06-18 16:09:00,
2013-06-18 12:14:00,79.0,71.9,29.06,SE,135,3.0,4.0,79,0.00,,---,0.00,0.00,VWS V14.01,2013-06-18 16:14:00,
2013-06-18 12:19:00,79.0,71.2,29.06,NNE,22,0.0,4.0,77,0.00,,---,0.00,0.00,VWS V14.01,2013-06-18 16:19:00,
2013-06-18 12:24:00,81.0,71.1,29.06,NW,315,0.0,0.0,72,0.00,,---,0.00,0.00,VWS V14.01,2013-06-18 16:24:00,
2013-06-18 12:29:00,80.0,71.0,29.06,ESE,112,0.0,5.0,74,0.00,,---,0.00,0.00,VWS V14.01,2013-06-18 16:29:00,
2013-06-18 12:34:00,79.0,68.4,29.07,NNE,22,0.0,4.0,70,0.00,,---,0.00,0.00,VWS V14.01,2013-06-18 16:34:00,
2013-06-18 12:39:00,79.0,69.6,29.07,ESE,112,0.0,3.0,73,0.00,,---,0.00,0.00,VWS V14.01,2013-06-18 16:39:00,
2013-06-18 12:44:00,80.0,69.8,29.07,South,180,0.0,3.0,71,0.00,,---,0.00,0.00,VWS V14.01,2013-06-18 16:44:00,
2013-06-18 12:49:00,79.0,69.2,29.07,SE,135,0.0,3.0,72,0.00,,---,0.00,0.00,VWS V14.01,2013-06-18 16:49:00,
2013-06-18 12:54:00,80.0,71.0,29.12,NNW,337,0.0,0.0,74,0.00,,---,0.00,0.00,VWS V14.01,2013-06-18 16:54:00,
2013-06-18 12:59:00,79.0,69.2,29.12,NW,315,0.0,3.0,72,0.00,,---,0.00,0.00,VWS V14.01,2013-06-18 16:59:00,
2013-06-18 13:04:00,80.0,70.2,29.06,East,90,0.0,4.0,72,0.00,,---,0.00,0.00,VWS V14.01,2013-06-18 17:04:00,
2013-06-18 13:09:00,80.0,69.8,29.06,SSE,157,2.0,4.0,71,0.00,,---,0.00,0.00,VWS V14.01,2013-06-18 17:09:00,
2013-06-18 13:14:00,80.0,69.3,29.05,SE,135,0.0,0.0,70,0.00,,---,0.00,0.00,VWS V14.01,2013-06-18 17:14:00,
2013-06-18 13:19:00,80.0,70.6,29.05,ESE,112,0.0,0.0,73,0.00,,---,0.00,0.00,VWS V14.01,2013-06-18 17:19:00,
2013-06-18 13:24:00,81.0,70.7,29.05,WNW,292,0.0,0.0,71,0.00,,---,0.00,0.00,VWS V14.01,2013-06-18 17:24:00,
2013-06-18 13:29:00,79.0,68.0,29.05,ENE,67,3.0,5.0,69,0.00,,---,0.00,0.00,VWS V14.01,2013-06-18 17:29:00,
2013-06-18 13:34:00,80.0,68.9,29.04,South,180,0.0,4.0,69,0.00,,---,0.00,0.00,VWS V14.01,2013-06-18 17:34:00,
2013-06-18 13:39:00,80.0,68.1,29.04,NE,45,0.0,5.0,67,0.00,,---,0.00,0.00,VWS V14.01,2013-06-18 17:39:00,
2013-06-18 13:44:00,80.0,67.6,29.05,SE,135,3.0,5.0,66,0.00,,---,0.00,0.00,VWS V14.01,2013-06-18 17:44:00,
2013-06-18 13:49:00,80.0,68.1,29.05,ENE,67,5.0,7.0,67,0.00,,---,0.00,0.00,VWS V14.01,2013-06-18 17:49:00,
2013-06-18 13:54:00,80.0,67.6,29.05,ENE,67,0.0,3.0,66,0.00,,---,0.00,0.00,VWS V14.01,2013-06-18 17:54:00,
2013-06-18 13:59:00,82.0,69.5,29.05,WNW,292,3.0,3.0,66,0.00,,---,0.00,0.00,VWS V14.01,2013-06-18 17:59:00,
2013-06-18 14:04:00,82.0,70.4,29.04,WNW,292,0.0,0.0,68,0.00,,---,0.00,0.00,VWS V14.01,2013-06-18 18:04:00,
2013-06-18 14:09:00,82.0,69.1,29.04,West,270,0.0,3.0,65,0.00,,---,0.00,0.00,VWS V14.01,2013-06-18 18:09:00,
2013-06-18 14:14:00,82.0,66.8,29.05,North,360,1.0,4.0,60,0.00,,---,0.00,0.00,VWS V14.01,2013-06-18 18:14:00,
2013-06-18 14:19:00,83.0,68.7,29.05,SSE,157,0.0,0.0,62,0.00,,---,0.00,0.00,VWS V14.01,2013-06-18 18:19:00,
2013-06-18 14:24:00,83.0,69.1,29.04,South,180,1.0,2.0,63,0.00,,---,0.00,0.00,VWS V14.01,2013-06-18 18:24:00,
2013-06-18 14:29:00,82.0,66.3,29.04,SE,135,0.0,4.0,59,0.00,,---,0.00,0.00,VWS V14.01,2013-06-18 18:29:00,
2013-06-18 14:34:00,82.0,67.2,29.05,East,90,0.0,3.0,61,0.00,,---,0.00,0.00,VWS V14.01,2013-06-18 18:34:00,
2013-06-18 14:39:00,82.0,66.3,29.05,ENE,67,0.0,4.0,59,0.00,,---,0.00,0.00,VWS V14.01,2013-06-18 18:39:00,
2013-06-18 14:44:00,82.0,69.5,29.05,ENE,67,0.0,0.0,66,0.00,,---,0.00,0.00,VWS V14.01,2013-06-18 18:44:00,
2013-06-18 14:49:00,82.0,66.3,29.05,NNW,337,3.0,3.0,59,0.00,,---,0.00,0.00,VWS V14.01,2013-06-18 18:49:00,
2013-06-18 14:54:00,83.0,66.7,29.05,SE,135,0.0,3.0,58,0.00,,---,0.00,0.00,VWS V14.01,2013-06-18 18:54:00,
2013-06-18 14:59:00,82.0,65.3,29.05,WNW,292,0.0,4.0,57,0.00,,---,0.00,0.00,VWS V14.01,2013-06-18 18:59:00,
2013-06-18 15:04:00,81.0,64.3,29.06,East,90,0.0,5.0,57,0.00,,---,0.00,0.00,VWS V14.01,2013-06-18 19:04:00,
2013-06-18 15:09:00,81.0,64.8,29.06,ESE,112,1.0,6.0,58,0.00,,---,0.00,0.00,VWS V14.01,2013-06-18 19:09:00,
2013-06-18 15:14:00,81.0,65.3,29.07,NW,315,0.0,3.0,59,0.00,,---,0.00,0.00,VWS V14.01,2013-06-18 19:14:00,
2013-06-18 15:19:00,83.0,66.2,29.07,East,90,3.0,4.0,57,0.00,,---,0.00,0.00,VWS V14.01,2013-06-18 19:19:00,
2013-06-18 15:24:00,82.0,67.2,29.11,ESE,112,3.0,4.0,61,0.00,,---,0.00,0.00,VWS V14.01,2013-06-18 19:24:00,
2013-06-18 15:29:00,81.0,64.8,29.11,East,90,2.0,3.0,58,0.00,,---,0.00,0.00,VWS V14.01,2013-06-18 19:29:00,
2013-06-18 15:34:00,81.0,65.3,29.08,ESE,112,0.0,4.0,59,0.00,,---,0.00,0.00,VWS V14.01,2013-06-18 19:34:00,
2013-06-18 15:39:00,82.0,67.2,29.08,NE,45,2.0,3.0,61,0.00,,---,0.00,0.00,VWS V14.01,2013-06-18 19:39:00,
2013-06-18 15:44:00,83.0,68.7,29.07,WNW,292,0.0,0.0,62,0.00,,---,0.00,0.00,VWS V14.01,2013-06-18 19:44:00,
2013-06-18 15:49:00,83.0,68.2,29.07,East,90,0.0,2.0,61,0.00,,---,0.00,0.00,VWS V14.01,2013-06-18 19:49:00,
2013-06-18 15:54:00,84.0,68.6,29.07,NW,315,0.0,4.0,60,0.00,,---,0.00,0.00,VWS V14.01,2013-06-18 19:54:00,
2013-06-18 15:59:00,84.0,67.1,29.07,West,270,0.0,0.0,57,0.00,,---,0.00,0.00,VWS V14.01,2013-06-18 19:59:00,
2013-06-18 16:04:00,83.0,68.2,29.09,SE,135,2.0,4.0,61,0.00,,---,0.00,0.00,VWS V14.01,2013-06-18 20:04:00,
2013-06-18 16:09:00,84.0,66.1,29.09,NW,315,0.0,3.0,55,0.00,,---,0.00,0.00,VWS V14.01,2013-06-18 20:09:00,
2013-06-18 16:14:00,84.0,67.1,29.09,East,90,1.0,3.0,57,0.00,,---,0.00,0.00,VWS V14.01,2013-06-18 20:14:00,
2013-06-18 16:19:00,84.0,68.1,29.09,NW,315,0.0,0.0,59,0.00,,---,0.00,0.00,VWS V14.01,2013-06-18 20:19:00,
2013-06-18 16:24:00,81.0,65.3,29.11,SSE,157,2.0,3.0,59,0.00,,---,0.00,0.00,VWS V14.01,2013-06-18 20:24:00,
2013-06-18 16:29:00,81.0,65.3,29.11,NNW,337,0.0,2.0,59,0.00,,---,0.00,0.00,VWS V14.01,2013-06-18 20:29:00,
2013-06-18 16:34:00,82.0,67.2,29.11,SE,135,0.0,0.0,61,0.00,,---,0.00,0.00,VWS V14.01,2013-06-18 20:34:00,
2013-06-18 16:39:00,82.0,66.3,29.11,NW,315,2.0,4.0,59,0.00,,---,0.00,0.00,VWS V14.01,2013-06-18 20:39:00,
2013-06-18 16:44:00,81.0,66.3,29.12,North,360,0.0,0.0,61,0.00,,---,0.00,0.00,VWS V14.01,2013-06-18 20:44:00,
2013-06-18 16:49:00,80.0,67.6,29.12,WNW,292,0.0,0.0,66,0.00,,---,0.00,0.00,VWS V14.01,2013-06-18 20:49:00,
2013-06-18 16:54:00,81.0,66.3,29.09,East,90,0.0,3.0,61,0.00,,---,0.00,0.00,VWS V14.01,2013-06-18 20:54:00,
2013-06-18 16:59:00,82.0,67.7,29.09,East,90,0.0,3.0,62,0.00,,---,0.00,0.00,VWS V14.01,2013-06-18 20:59:00,
2013-06-18 17:04:00,83.0,66.7,29.09,NE,45,0.0,0.0,58,0.00,,---,0.00,0.00,VWS V14.01,2013-06-18 21:04:00,
2013-06-18 17:09:00,84.0,67.1,29.09,NW,315,0.0,3.0,57,0.00,,---,0.00,0.00,VWS V14.01,2013-06-18 21:09:00,
2013-06-18 17:14:00,84.0,67.7,29.09,NW,315,0.0,0.0,58,0.00,,---,0.00,0.00,VWS V14.01,2013-06-18 21:14:00,
2013-06-18 17:19:00,82.0,64.3,29.09,North,360,0.0,3.0,55,0.00,,---,0.00,0.00,VWS V14.01,2013-06-18 21:19:00,
2013-06-18 17:24:00,83.0,65.7,29.11,North,360,0.0,3.0,56,0.00,,---,0.00,0.00,VWS V14.01,2013-06-18 21:24:00,
2013-06-18 17:29:00,82.0,66.3,29.11,WNW,292,0.0,2.0,59,0.00,,---,0.00,0.00,VWS V14.01,2013-06-18 21:29:00,
2013-06-18 17:34:00,81.0,66.3,29.11,NNW,337,4.0,4.0,61,0.00,,---,0.00,0.00,VWS V14.01,2013-06-18 21:34:00,
2013-06-18 17:39:00,80.0,65.8,29.11,NNE,22,0.0,0.0,62,0.00,,---,0.00,0.00,VWS V14.01,2013-06-18 21:39:00,
2013-06-18 17:44:00,80.0,67.6,29.13,SE,135,0.0,3.0,66,0.00,,---,0.00,0.00,VWS V14.01,2013-06-18 21:44:00,
2013-06-18 17:49:00,79.0,67.1,29.13,ESE,112,3.0,4.0,67,0.00,,---,0.00,0.00,VWS V14.01,2013-06-18 21:49:00,
2013-06-18 17:54:00,78.0,67.0,29.14,NNE,22,1.0,7.0,69,0.00,,---,0.00,0.00,VWS V14.01,2013-06-18 21:54:00,
2013-06-18 17:59:00,78.0,67.8,29.14,ESE,112,0.0,0.0,71,0.00,,---,0.00,0.00,VWS V14.01,2013-06-18 21:59:00,
2013-06-18 18:04:00,78.0,67.0,29.13,ESE,112,0.0,6.0,69,0.00,,---,0.00,0.00,VWS V14.01,2013-06-18 22:04:00,
2013-06-18 18:09:00,79.0,67.1,29.13,NNW,337,0.0,5.0,67,0.00,,---,0.00,0.00,VWS V14.01,2013-06-18 22:09:00,
2013-06-18 18:14:00,79.0,68.0,29.12,WNW,292,0.0,5.0,69,0.00,,---,0.00,0.00,VWS V14.01,2013-06-18 22:14:00,
2013-06-18 18:19:00,79.0,68.0,29.12,NE,45,3.0,3.0,69,0.00,,---,0.00,0.00,VWS V14.01,2013-06-18 22:19:00,
2013-06-18 18:24:00,80.0,68.5,29.13,ESE,112,0.0,3.0,68,0.00,,---,0.00,0.00,VWS V14.01,2013-06-18 22:24:00,
2013-06-18 18:29:00,80.0,67.6,29.13,West,270,0.0,2.0,66,0.00,,---,0.00,0.00,VWS V14.01,2013-06-18 22:29:00,
2013-06-18 18:34:00,80.0,66.7,29.13,West,270,0.0,4.0,64,0.00,,---,0.00,0.00,VWS V14.01,2013-06-18 22:34:00,
2013-06-18 18:39:00,80.0,66.7,29.13,NNW,337,4.0,5.0,64,0.00,,---,0.00,0.00,VWS V14.01,2013-06-18 22:39:00,
2013-06-18 18:44:00,79.0,65.3,29.13,WNW,292,3.0,6.0,63,0.00,,---,0.00,0.00,VWS V14.01,2013-06-18 22:44:00,
2013-06-18 18:49:00,79.0,66.7,29.13,WNW,292,0.0,4.0,66,0.00,,---,0.00,0.00,VWS V14.01,2013-06-18 22:49:00,
2013-06-18 18:54:00,79.0,65.8,29.15,West,270,0.0,4.0,64,0.00,,---,0.00,0.00,VWS V14.01,2013-06-18 22:54:00,
2013-06-18 18:59:00,79.0,66.2,29.15,NNW,337,0.0,4.0,65,0.00,,---,0.00,0.00,VWS V14.01,2013-06-18 22:59:00,
2013-06-18 19:04:00,78.0,64.8,29.16,NW,315,3.0,6.0,64,0.00,,---,0.00,0.00,VWS V14.01,2013-06-18 23:04:00,
2013-06-18 19:09:00,77.0,65.2,29.16,WNW,292,1.0,1.0,67,0.00,,---,0.00,0.00,VWS V14.01,2013-06-18 23:09:00,
2013-06-18 19:14:00,77.0,65.6,29.17,SSE,157,0.0,0.0,68,0.00,,---,0.00,0.00,VWS V14.01,2013-06-18 23:14:00,
2013-06-18 19:19:00,76.0,65.5,29.17,NW,315,0.0,1.0,70,0.00,,---,0.00,0.00,VWS V14.01,2013-06-18 23:19:00,
2013-06-18 19:24:00,76.0,65.1,29.17,NW,315,0.0,3.0,69,0.00,,---,0.00,0.00,VWS V14.01,2013-06-18 23:24:00,
2013-06-18 19:29:00,76.0,65.9,29.17,WSW,247,0.0,2.0,71,0.00,,---,0.00,0.00,VWS V14.01,2013-06-18 23:29:00,
2013-06-18 19:34:00,76.0,65.9,29.17,NE,45,0.0,0.0,71,0.00,,---,0.00,0.00,VWS V14.01,2013-06-18 23:34:00,
2013-06-18 19:39:00,75.0,64.6,29.17,NNW,337,0.0,2.0,70,0.00,,---,0.00,0.00,VWS V14.01,2013-06-18 23:39:00,
2013-06-18 19:44:00,75.0,64.6,29.17,NNW,337,2.0,4.0,70,0.00,,---,0.00,0.00,VWS V14.01,2013-06-18 23:44:00,
2013-06-18 19:49:00,75.0,65.0,29.17,West,270,0.0,3.0,71,0.00,,---,0.00,0.00,VWS V14.01,2013-06-18 23:49:00,
2013-06-18 19:54:00,75.0,64.6,29.17,West,270,0.0,2.0,70,0.00,,---,0.00,0.00,VWS V14.01,2013-06-18 23:54:00,
2013-06-18 19:59:00,74.0,64.0,29.17,WNW,292,0.0,0.0,71,0.00,,---,0.00,0.00,VWS V14.01,2013-06-18 23:59:00,
2013-06-18 20:04:00,74.0,64.0,29.17,WNW,292,0.0,0.0,71,0.00,,---,0.00,0.00,VWS V14.01,2013-06-19 00:04:00,
2013-06-18 20:09:00,74.0,64.0,29.17,NW,315,0.0,3.0,71,0.00,,---,0.00,0.00,VWS V14.01,2013-06-19 00:09:00,
2013-06-18 20:14:00,73.0,63.8,29.19,WNW,292,0.0,0.0,73,0.00,,---,0.00,0.00,VWS V14.01,2013-06-19 00:14:00,
2013-06-18 20:19:00,73.0,63.8,29.19,NW,315,0.0,1.0,73,0.00,,---,0.00,0.00,VWS V14.01,2013-06-19 00:19:00,
2013-06-18 20:24:00,73.0,63.8,29.18,North,360,0.0,3.0,73,0.00,,---,0.00,0.00,VWS V14.01,2013-06-19 00:24:00,
2013-06-18 20:29:00,73.0,63.8,29.18,NNE,22,0.0,1.0,73,0.00,,---,0.00,0.00,VWS V14.01,2013-06-19 00:29:00,
2013-06-18 20:34:00,73.0,64.2,29.18,NW,315,0.0,0.0,74,0.00,,---,0.00,0.00,VWS V14.01,2013-06-19 00:34:00,
2013-06-18 20:39:00,73.0,65.0,29.18,NNW,337,0.0,0.0,76,0.00,,---,0.00,0.00,VWS V14.01,2013-06-19 00:39:00,
2013-06-18 20:44:00,73.0,65.0,29.18,West,270,0.0,0.0,76,0.00,,---,0.00,0.00,VWS V14.01,2013-06-19 00:44:00,
2013-06-18 20:49:00,72.0,63.7,29.18,NNW,337,0.0,0.0,75,0.00,,---,0.00,0.00,VWS V14.01,2013-06-19 00:49:00,
2013-06-18 20:54:00,72.0,63.7,29.19,NNE,22,0.0,0.0,75,0.00,,---,0.00,0.00,VWS V14.01,2013-06-19 00:54:00,
2013-06-18 20:59:00,72.0,64.0,29.19,WNW,292,0.0,0.0,76,0.00,,---,0.00,0.00,VWS V14.01,2013-06-19 00:59:00,
2013-06-18 21:04:00,72.0,64.0,29.19,NE,45,0.0,0.0,76,0.00,,---,0.00,0.00,VWS V14.01,2013-06-19 01:04:00,
2013-06-18 21:09:00,71.0,63.8,29.19,NW,315,0.0,0.0,78,0.00,,---,0.00,0.00,VWS V14.01,2013-06-19 01:09:00,
2013-06-18 21:14:00,71.0,63.4,29.20,South,180,0.0,0.0,77,0.00,,---,0.00,0.00,VWS V14.01,2013-06-19 01:14:00,
2013-06-18 21:19:00,71.0,64.5,29.20,West,270,0.0,0.0,80,0.00,,---,0.00,0.00,VWS V14.01,2013-06-19 01:19:00,
2013-06-18 21:24:00,70.0,63.5,29.20,West,270,0.0,0.0,80,0.00,,---,0.00,0.00,VWS V14.01,2013-06-19 01:24:00,
2013-06-18 21:29:00,70.0,63.9,29.20,West,270,0.0,0.0,81,0.00,,---,0.00,0.00,VWS V14.01,2013-06-19 01:29:00,
2013-06-18 21:34:00,70.0,64.6,29.20,West,270,0.0,0.0,83,0.00,,---,0.00,0.00,VWS V14.01,2013-06-19 01:34:00,
2013-06-18 21:39:00,69.0,63.6,29.20,West,270,0.0,0.0,83,0.00,,---,0.00,0.00,VWS V14.01,2013-06-19 01:39:00,
2013-06-18 21:44:00,69.0,64.0,29.20,West,270,0.0,0.0,84,0.00,,---,0.00,0.00,VWS V14.01,2013-06-19 01:44:00,
2013-06-18 21:49:00,68.0,63.3,29.20,West,270,0.0,0.0,85,0.00,,---,0.00,0.00,VWS V14.01,2013-06-19 01:49:00,
2013-06-18 21:54:00,68.0,63.7,29.21,West,270,0.0,0.0,86,0.00,,---,0.00,0.00,VWS V14.01,2013-06-19 01:54:00,
2013-06-18 21:59:00,68.0,64.3,29.21,West,270,0.0,0.0,88,0.00,,---,0.00,0.00,VWS V14.01,2013-06-19 01:59:00,
2013-06-18 22:04:00,68.0,65.0,29.20,West,270,0.0,0.0,90,0.00,,---,0.00,0.00,VWS V14.01,2013-06-19 02:04:00,
2013-06-18 22:09:00,67.0,64.0,29.20,West,270,0.0,0.0,90,0.00,,---,0.00,0.00,VWS V14.01,2013-06-19 02:09:00,
2013-06-18 22:14:00,67.0,64.3,29.20,West,270,0.0,0.0,91,0.00,,---,0.00,0.00,VWS V14.01,2013-06-19 02:14:00,
2013-06-18 22:19:00,66.0,63.3,29.20,West,270,0.0,0.0,91,0.00,,---,0.00,0.00,VWS V14.01,2013-06-19 02:19:00,
2013-06-18 22:24:00,66.0,63.9,29.21,West,270,0.0,0.0,93,0.00,,---,0.00,0.00,VWS V14.01,2013-06-19 02:24:00,
2013-06-18 22:29:00,66.0,63.9,29.21,West,270,0.0,0.0,93,0.00,,---,0.00,0.00,VWS V14.01,2013-06-19 02:29:00,
2013-06-18 22:34:00,66.0,63.9,29.23,West,270,0.0,0.0,93,0.00,,---,0.00,0.00,VWS V14.01,2013-06-19 02:34:00,
2013-06-18 22:39:00,65.0,63.2,29.23,West,270,0.0,0.0,94,0.00,,---,0.00,0.00,VWS V14.01,2013-06-19 02:39:00,
2013-06-18 22:44:00,65.0,63.8,29.22,West,270,0.0,0.0,96,0.00,,---,0.00,0.00,VWS V14.01,2013-06-19 02:44:00,
2013-06-18 22:49:00,65.0,64.1,29.22,West,270,0.0,0.0,97,0.00,,---,0.00,0.00,VWS V14.01,2013-06-19 02:49:00,
2013-06-18 22:54:00,65.0,65.0,29.23,East,90,0.0,0.0,100,0.00,,---,0.00,0.00,VWS V14.01,2013-06-19 02:54:00,
2013-06-18 22:59:00,65.0,65.0,29.23,NE,45,0.0,0.0,100,0.00,,---,0.00,0.00,VWS V14.01,2013-06-19 02:59:00,
2013-06-18 23:04:00,65.0,64.7,29.24,North,360,0.0,0.0,99,0.00,,---,0.00,0.00,VWS V14.01,2013-06-19 03:04:00,
2013-06-18 23:09:00,65.0,64.4,29.24,NE,45,0.0,3.0,98,0.00,,---,0.00,0.00,VWS V14.01,2013-06-19 03:09:00,
2013-06-18 23:14:00,66.0,64.5,29.24,SE,135,0.0,0.0,95,0.00,,---,0.00,0.00,VWS V14.01,2013-06-19 03:14:00,
2013-06-18 23:19:00,67.0,64.9,29.24,NW,315,0.0,2.0,93,0.00,,---,0.00,0.00,VWS V14.01,2013-06-19 03:19:00,
2013-06-18 23:24:00,67.0,64.3,29.23,ESE,112,0.0,0.0,91,0.00,,---,0.00,0.00,VWS V14.01,2013-06-19 03:24:00,
2013-06-18 23:29:00,67.0,64.3,29.23,NE,45,0.0,0.0,91,0.00,,---,0.00,0.00,VWS V14.01,2013-06-19 03:29:00,
2013-06-18 23:34:00,67.0,64.3,29.24,NW,315,0.0,0.0,91,0.00,,---,0.00,0.00,VWS V14.01,2013-06-19 03:34:00,
2013-06-18 23:39:00,67.0,64.0,29.24,WNW,292,0.0,1.0,90,0.00,,---,0.00,0.00,VWS V14.01,2013-06-19 03:39:00,
2013-06-18 23:44:00,67.0,63.3,29.25,ESE,112,0.0,3.0,88,0.00,,---,0.00,0.00,VWS V14.01,2013-06-19 03:44:00,
2013-06-18 23:49:00,67.0,63.3,29.25,NNE,22,0.0,0.0,88,0.00,,---,0.00,0.00,VWS V14.01,2013-06-19 03:49:00,
2013-06-18 23:54:00,68.0,63.7,29.23,North,360,0.0,2.0,86,0.00,,---,0.00,0.00,VWS V14.01,2013-06-19 03:54:00,
2013-06-18 23:59:00,67.0,62.7,29.23,SE,135,0.0,0.0,86,0.00,,---,0.00,0.00,VWS V14.01,2013-06-19 03:59:00,